Location: Drocourt
(49.0571°N, 1.7669°E)
Time: 15:03:02
(UTC+00:00)

Cosmos 841 Rocket - Pass Details

Date: 09 February 2023
Orbit: 746 x 771 km, 74.0° (Epoch: 25 March)

Event Time Altitude Azimuth Distance (km) Brightness Sun altitude
Rises 17:53:22 0° 335° (NNW) 3,257 6.9 -8.8°
Reaches altitude 10° 17:55:46 10° 333° (NNW) 2,324 6.2 -9.1°
Maximum altitude 18:01:02 73° 250° (WSW) 807 3.8 -10.0°
Drops below altitude 10° 18:06:13 10° 167° (SSE) 2,296 5.9 -10.8°
Sets 18:08:35 0° 165° (SSE) 3,214 6.7 -11.2°
